カタログに戻る

STARLINK-31462

運用中通信VLEO
NORAD 59466·PAYLOAD·🇺🇸 United States

打ち上げ Apr 10, 2024 から Cape Canaveral Space Force Station

Loading…

次のパス (今後24時間)

TLE

最新Source: CelesTrak SupGP

元期: Sep 15, 2026, 03:36 UTC

1 59466C 24068M   26258.15048611 -.00018962  00000+0 -68667-3 0  2580
2 59466  43.0030  44.4518 0001476 266.6662 291.7542 15.27593758    13

AllMySatでSTARLINK-31462をリアルタイム追跡

Download on the App Store